| time (UTC) | temp F | wind direction | speed MPH | gust MPH | rain 1hr in | rain 24hr in | rain mn in | humidity % | barometer mb |
| 20260906222050 | 78 | 44 | 2.0 | 13.0 | 0.00 | 0.00 | 0.00 | 59 | 1011.7 |
| 20260906221555 | 78 | 55 | 4.0 | 13.0 | 0.00 | 0.00 | 0.00 | 60 | 1011.9 |
| 20260906221052 | 78 | 73 | 6.0 | 13.0 | 0.00 | 0.00 | 0.00 | 58 | 1011.9 |
| 20260906220551 | 79 | 79 | 4.0 | 11.0 | 0.00 | 0.00 | 0.00 | 58 | 1011.8 |
| 20260906220107 | 78 | 13 | 6.0 | 11.0 | 0.00 | 0.00 | 0.00 | 61 | 1011.8 |
| 20260906215552 | 78 | 109 | 4.0 | 10.0 | 0.00 | 0.00 | 0.00 | 59 | 1011.8 |
| 20260906215048 | 78 | 40 | 2.0 | 10.0 | 0.00 | 0.00 | 0.00 | 60 | 1011.7 |
| 20260906214601 | 78 | 61 | 4.0 | 11.0 | 0.00 | 0.00 | 0.00 | 60 | 1011.8 |
| 20260906214052 | 78 | 76 | 5.0 | 12.0 | 0.00 | 0.00 | 0.00 | 58 | 1011.8 |
| 20260906213552 | 79 | 103 | 4.0 | 12.0 | 0.00 | 0.00 | 0.00 | 58 | 1011.9 |
| 20260906213055 | 79 | 55 | 4.0 | 9.0 | 0.00 | 0.00 | 0.00 | 59 | 1011.9 |
| 20260906212550 | 79 | 67 | 1.0 | 9.0 | 0.00 | 0.00 | 0.00 | 58 | 1012.0 |
| 20260906212053 | 79 | 101 | 4.0 | 9.0 | 0.00 | 0.00 | 0.00 | 60 | 1011.9 |
| 20260906211602 | 78 | 0 | 3.0 | 8.0 | 0.00 | 0.00 | 0.00 | 58 | 1012.1 |
| 20260906211048 | 78 | 42 | 3.0 | 8.0 | 0.00 | 0.00 | 0.00 | 57 | 1012.1 |
| 20260906210552 | 78 | 52 | 2.0 | 10.0 | 0.00 | 0.00 | 0.00 | 58 | 1012.2 |
| 20260906210127 | 78 | 67 | 2.0 | 10.0 | 0.00 | 0.00 | 0.00 | 58 | 1012.3 |
| 20260906205552 | 78 | 77 | 5.0 | 10.0 | 0.00 | 0.00 | 0.00 | 58 | 1012.4 |
| 20260906205047 | 77 | 114 | 3.0 | 10.0 | 0.00 | 0.00 | 0.00 | 62 | 1012.6 |
| 20260906204558 | 78 | 106 | 4.0 | 10.0 | 0.00 | 0.00 | 0.00 | 59 | 1012.7 |
| 20260906204047 | 78 | 49 | 2.0 | 8.0 | 0.00 | 0.00 | 0.00 | 60 | 1012.7 |
| 20260906203551 | 77 | 103 | 3.0 | 10.0 | 0.00 | 0.00 | 0.00 | 59 | 1012.7 |
| 20260906203057 | 77 | 94 | 5.0 | 10.0 | 0.00 | 0.00 | 0.00 | 61 | 1012.9 |
| 20260906202550 | 77 | 59 | 5.0 | 12.0 | 0.00 | 0.00 | 0.00 | 61 | 1012.9 |
| 20260906202051 | 77 | 87 | 3.0 | 12.0 | 0.00 | 0.00 | 0.00 | 62 | 1013.0 |
| 20260906201557 | 77 | 107 | 2.0 | 10.0 | 0.00 | 0.00 | 0.00 | 62 | 1013.1 |
| 20260906201053 | 77 | 74 | 2.0 | 7.0 | 0.00 | 0.00 | 0.00 | 61 | 1013.1 |
| 20260906200548 | 78 | 38 | 3.0 | 8.0 | 0.00 | 0.00 | 0.00 | 62 | 1013.2 |
| 20260906200108 | 77 | 327 | 2.0 | 9.0 | 0.00 | 0.00 | 0.00 | 59 | 1013.3 |
| 20260906195550 | 77 | 338 | 4.0 | 9.0 | 0.00 | 0.00 | 0.00 | 61 | 1013.3 |
| 20260906195047 | 77 | 74 | 0.0 | 5.0 | 0.00 | 0.00 | 0.00 | 59 | 1013.3 |
| 20260906194558 | 77 | 153 | 1.0 | 5.0 | 0.00 | 0.00 | 0.00 | 62 | 1013.4 |
| 20260906194050 | 77 | 349 | 0.0 | 4.0 | 0.00 | 0.00 | 0.00 | 58 | 1013.5 |
| 20260906193550 | 77 | 347 | 2.0 | 8.0 | 0.00 | 0.00 | 0.00 | 59 | 1013.7 |
| 20260906193058 | 77 | 329 | 2.0 | 8.0 | 0.00 | 0.00 | 0.00 | 61 | 1013.7 |
| 20260906192550 | 77 | 0 | 2.0 | 6.0 | 0.00 | 0.00 | 0.00 | 60 | 1013.8 |
| 20260906192051 | 76 | 282 | 1.0 | 6.0 | 0.00 | 0.00 | 0.00 | 62 | 1013.9 |
| 20260906191559 | 76 | 209 | 3.0 | 6.0 | 0.00 | 0.00 | 0.00 | 62 | 1014.1 |
| 20260906191053 | 77 | 31 | 2.0 | 5.0 | 0.00 | 0.00 | 0.00 | 63 | 1014.2 |
| 20260906190556 | 76 | 314 | 1.0 | 5.0 | 0.00 | 0.00 | 0.00 | 64 | 1014.2 |
| 20260906190105 | 75 | 307 | 0.0 | 3.0 | 0.00 | 0.00 | 0.00 | 64 | 1014.3 |
| 20260906185552 | 74 | 0 | 1.0 | 4.0 | 0.00 | 0.00 | 0.00 | 65 | 1014.4 |
| 20260906185050 | 74 | 42 | 1.0 | 4.0 | 0.00 | 0.00 | 0.00 | 68 | 1014.7 |
| 20260906184624 | 74 | 65 | 1.0 | 7.0 | 0.00 | 0.00 | 0.00 | 66 | 1014.7 |
| 20260906184058 | 74 | 86 | 3.0 | 12.0 | 0.00 | 0.00 | 0.00 | 67 | 1014.8 |
| 20260906183554 | 73 | 89 | 3.0 | 12.0 | 0.00 | 0.00 | 0.00 | 67 | 1014.7 |
| 20260906183101 | 74 | 346 | 2.0 | 6.0 | 0.00 | 0.00 | 0.00 | 67 | 1014.7 |
| 20260906182554 | 73 | 61 | 0.0 | 7.0 | 0.00 | 0.00 | 0.00 | 70 | 1014.9 |
| 20260906182049 | 73 | 0 | 2.0 | 7.0 | 0.00 | 0.00 | 0.00 | 67 | 1015.0 |
| 20260906181602 | 73 | 48 | 2.0 | 6.0 | 0.00 | 0.00 | 0.00 | 67 | 1015.1 |
| 20260906181049 | 73 | 336 | 1.0 | 8.0 | 0.00 | 0.00 | 0.00 | 69 | 1015.2 |
| 20260906180552 | 72 | 340 | 3.0 | 8.0 | 0.00 | 0.00 | 0.00 | 69 | 1015.4 |
| 20260906180058 | 72 | 37 | 2.0 | 8.0 | 0.00 | 0.00 | 0.00 | 69 | 1015.6 |
| 20260906175550 | 72 | 32 | 2.0 | 5.0 | 0.00 | 0.00 | 0.00 | 69 | 1015.6 |
| 20260906175049 | 72 | 5 | 2.0 | 6.0 | 0.00 | 0.00 | 0.00 | 69 | 1015.8 |
| 20260906174556 | 72 | 321 | 2.0 | 8.0 | 0.00 | 0.00 | 0.00 | 67 | 1015.8 |
| 20260906174048 | 71 | 321 | 2.0 | 8.0 | 0.00 | 0.00 | 0.00 | 69 | 1015.9 |
| 20260906173549 | 70 | 328 | 4.0 | 8.0 | 0.00 | 0.00 | 0.00 | 69 | 1016.0 |
| 20260906173058 | 71 | 57 | 1.0 | 5.0 | 0.00 | 0.00 | 0.00 | 70 | 1016.0 |
| 20260906172550 | 70 | 344 | 1.0 | 5.0 | 0.00 | 0.00 | 0.00 | 69 | 1016.0 |
| 20260906172050 | 70 | 318 | 2.0 | 8.0 | 0.00 | 0.00 | 0.00 | 69 | 1016.1 |
| 20260906171559 | 70 | 297 | 2.0 | 8.0 | 0.00 | 0.00 | 0.00 | 70 | 1016.0 |
| 20260906171047 | 70 | 327 | 3.0 | 9.0 | 0.00 | 0.00 | 0.00 | 71 | 1016.0 |
| 20260906170551 | 70 | 297 | 3.0 | 9.0 | 0.00 | 0.00 | 0.00 | 70 | 1016.1 |
| 20260906170100 | 70 | 317 | 2.0 | 9.0 | 0.00 | 0.00 | 0.00 | 71 | 1016.0 |
| 20260906165551 | 70 | 352 | 3.0 | 9.0 | 0.00 | 0.00 | 0.00 | 71 | 1015.9 |
| 20260906165051 | 69 | 346 | 3.0 | 8.0 | 0.00 | 0.00 | 0.00 | 72 | 1015.9 |
| 20260906164555 | 69 | 325 | 2.0 | 8.0 | 0.00 | 0.00 | 0.00 | 72 | 1016.0 |
| 20260906164047 | 69 | 325 | 1.0 | 4.0 | 0.00 | 0.00 | 0.00 | 73 | 1016.0 |
| 20260906163548 | 69 | 336 | 1.0 | 4.0 | 0.00 | 0.00 | 0.00 | 72 | 1016.2 |
| 20260906163105 | 69 | 10 | 1.0 | 4.0 | 0.00 | 0.00 | 0.00 | 73 | 1016.2 |
| 20260906162550 | 69 | 355 | 1.0 | 6.0 | 0.00 | 0.00 | 0.00 | 73 | 1016.2 |
| 20260906162050 | 69 | 338 | 2.0 | 6.0 | 0.00 | 0.00 | 0.00 | 72 | 1016.3 |
| 20260906161558 | 69 | 342 | 2.0 | 5.0 | 0.00 | 0.00 | 0.00 | 72 | 1016.3 |
| 20260906161051 | 69 | 323 | 2.0 | 5.0 | 0.00 | 0.00 | 0.00 | 72 | 1016.3 |
| 20260906160549 | 69 | 329 | 1.0 | 6.0 | 0.00 | 0.00 | 0.00 | 73 | 1016.2 |
| 20260906160109 | 69 | 332 | 2.0 | 6.0 | 0.00 | 0.00 | 0.00 | 72 | 1016.3 |
| 20260906155551 | 69 | 338 | 2.0 | 6.0 | 0.00 | 0.00 | 0.00 | 72 | 1016.1 |
| 20260906155051 | 69 | 304 | 1.0 | 5.0 | 0.00 | 0.00 | 0.00 | 74 | 1016.1 |
| 20260906154605 | 68 | 321 | 1.0 | 4.0 | 0.00 | 0.00 | 0.00 | 73 | 1016.1 |
| 20260906154051 | 68 | 253 | 1.0 | 4.0 | 0.00 | 0.00 | 0.00 | 72 | 1016.1 |
| 20260906153548 | 67 | 256 | 1.0 | 3.0 | 0.00 | 0.00 | 0.00 | 72 | 1016.0 |
| 20260906153059 | 67 | 313 | 0.0 | 3.0 | 0.00 | 0.00 | 0.00 | 75 | 1015.9 |
| 20260906152549 | 67 | 0 | 1.0 | 5.0 | 0.00 | 0.00 | 0.00 | 77 | 1015.9 |
| 20260906152053 | 66 | 330 | 2.0 | 5.0 | 0.00 | 0.00 | 0.00 | 75 | 1016.0 |
| 20260906151557 | 65 | 0 | 0.0 | 3.0 | 0.00 | 0.00 | 0.00 | 73 | 1016.1 |
| 20260906151051 | 65 | 302 | 1.0 | 3.0 | 0.00 | 0.00 | 0.00 | 75 | 1016.2 |
| 20260906150554 | 64 | 0 | 0.0 | 3.0 | 0.00 | 0.00 | 0.00 | 77 | 1016.2 |
| 20260906150056 | 64 | 0 | 0.0 | 4.0 | 0.00 | 0.00 | 0.00 | 76 | 1016.2 |
| 20260906145554 | 63 | 348 | 0.0 | 4.0 | 0.00 | 0.00 | 0.00 | 78 | 1016.2 |
| 20260906145054 | 63 | 0 | 0.0 | 4.0 | 0.00 | 0.00 | 0.00 | 78 | 1016.3 |
| 20260906144602 | 62 | 0 | 0.0 | 3.0 | 0.00 | 0.00 | 0.00 | 80 | 1016.5 |
| 20260906144053 | 62 | 0 | 0.0 | 3.0 | 0.00 | 0.00 | 0.00 | 80 | 1016.4 |
| 20260906143554 | 61 | 340 | 1.0 | 4.0 | 0.00 | 0.00 | 0.00 | 80 | 1016.4 |
| 20260906143100 | 60 | 323 | 2.0 | 4.0 | 0.00 | 0.00 | 0.00 | 82 | 1016.4 |
| 20260906142553 | 60 | 0 | 1.0 | 4.0 | 0.00 | 0.00 | 0.00 | 83 | 1016.3 |
| 20260906142051 | 59 | 0 | 1.0 | 4.0 | 0.00 | 0.00 | 0.00 | 85 | 1016.3 |
| 20260906141620 | 59 | 0 | 0.0 | 0.0 | 0.00 | 0.00 | 0.00 | 86 | 1016.4 |
| 20260906141053 | 58 | 0 | 0.0 | 0.0 | 0.00 | 0.00 | 0.00 | 86 | 1016.4 |
| 20260906140550 | 57 | 0 | 0.0 | 0.0 | 0.00 | 0.00 | 0.00 | 87 | 1016.2 |
| 20260906140108 | 57 | 0 | 0.0 | 0.0 | 0.00 | 0.00 | 0.00 | 87 | 1016.4 |
| 20260906135551 | 56 | 0 | 0.0 | 3.0 | 0.00 | 0.00 | 0.00 | 87 | 1016.3 |
| 20260906135051 | 56 | 0 | 0.0 | 3.0 | 0.00 | 0.00 | 0.00 | 86 | 1016.2 |
| 20260906134617 | 56 | 0 | 1.0 | 3.0 | 0.00 | 0.00 | 0.00 | 87 | 1016.1 |
| 20260906134050 | 55 | 345 | 1.0 | 4.0 | 0.00 | 0.00 | 0.00 | 87 | 1016.2 |
| 20260906133550 | 55 | 0 | 1.0 | 4.0 | 0.00 | 0.00 | 0.00 | 86 | 1016.2 |
| 20260906133111 | 55 | 319 | 0.0 | 3.0 | 0.00 | 0.00 | 0.00 | 85 | 1016.0 |
| 20260906132551 | 55 | 274 | 1.0 | 3.0 | 0.00 | 0.00 | 0.00 | 85 | 1016.0 |
| 20260906132052 | 55 | 0 | 0.0 | 0.0 | 0.00 | 0.00 | 0.00 | 85 | 1016.1 |
| 20260906131606 | 55 | 0 | 0.0 | 0.0 | 0.00 | 0.00 | 0.00 | 85 | 1016.3 |
| 20260906131049 | 55 | 0 | 0.0 | 0.0 | 0.00 | 0.00 | 0.00 | 85 | 1016.3 |
| 20260906130552 | 55 | 0 | 0.0 | 0.0 | 0.00 | 0.00 | 0.00 | 84 | 1016.3 |
| 20260906130147 | 55 | 0 | 0.0 | 0.0 | 0.00 | 0.00 | 0.00 | 84 | 1016.2 |
| 20260906125551 | 55 | 0 | 0.0 | 0.0 | 0.00 | 0.00 | 0.00 | 84 | 1016.3 |
| 20260906125050 | 55 | 0 | 0.0 | 2.0 | 0.00 | 0.00 | 0.00 | 84 | 1016.1 |
| 20260906124610 | 56 | 0 | 0.0 | 2.0 | 0.00 | 0.00 | 0.00 | 83 | 1015.9 |
| 20260906124050 | 56 | 0 | 0.0 | 2.0 | 0.00 | 0.00 | 0.00 | 82 | 1016.0 |
| 20260906123551 | 56 | 0 | 0.0 | 0.0 | 0.00 | 0.00 | 0.00 | 83 | 1016.1 |
| 20260906123102 | 56 | 0 | 0.0 | 0.0 | 0.00 | 0.00 | 0.00 | 83 | 1016.2 |
| 20260906122550 | 56 | 0 | 0.0 | 0.0 | 0.00 | 0.00 | 0.00 | 82 | 1016.0 |
| 20260906122051 | 57 | 0 | 0.0 | 0.0 | 0.00 | 0.00 | 0.00 | 82 | 1016.0 |
| 20260906121609 | 57 | 0 | 0.0 | 0.0 | 0.00 | 0.00 | 0.00 | 82 | 1016.0 |
| 20260906121048 | 57 | 0 | 0.0 | 0.0 | 0.00 | 0.00 | 0.00 | 83 | 1016.2 |
| 20260906120548 | 57 | 0 | 0.0 | 0.0 | 0.00 | 0.00 | 0.00 | 81 | 1016.0 |
| 20260906120111 | 57 | 0 | 0.0 | 0.0 | 0.00 | 0.00 | 0.00 | 80 | 1015.8 |
| 20260906115551 | 57 | 0 | 0.0 | 0.0 | 0.00 | 0.00 | 0.00 | 79 | 1016.0 |
| 20260906115050 | 58 | 0 | 0.0 | 0.0 | 0.00 | 0.00 | 0.00 | 79 | 1016.0 |
| 20260906114602 | 58 | 0 | 0.0 | 0.0 | 0.00 | 0.00 | 0.00 | 80 | 1015.9 |
| 20260906114051 | 58 | 0 | 0.0 | 0.0 | 0.00 | 0.00 | 0.00 | 81 | 1016.0 |
| 20260906113548 | 58 | 0 | 0.0 | 0.0 | 0.00 | 0.00 | 0.00 | 78 | 1015.8 |
| 20260906113057 | 59 | 0 | 0.0 | 0.0 | 0.00 | 0.00 | 0.00 | 77 | 1015.9 |
| 20260906112548 | 59 | 0 | 0.0 | 0.0 | 0.00 | 0.00 | 0.00 | 76 | 1016.0 |
| 20260906112048 | 60 | 0 | 0.0 | 0.0 | 0.00 | 0.00 | 0.00 | 75 | 1016.1 |
| 20260906111602 | 60 | 0 | 0.0 | 4.0 | 0.00 | 0.00 | 0.00 | 75 | 1016.2 |
| 20260906111048 | 60 | 0 | 0.0 | 4.0 | 0.00 | 0.00 | 0.00 | 74 | 1015.9 |
| 20260906110550 | 60 | 298 | 2.0 | 4.0 | 0.00 | 0.00 | 0.00 | 74 | 1015.8 |
| 20260906110057 | 60 | 218 | 1.0 | 4.0 | 0.00 | 0.00 | 0.00 | 75 | 1015.8 |
| 20260906105548 | 60 | 0 | 0.0 | 4.0 | 0.00 | 0.00 | 0.00 | 74 | 1015.6 |
| 20260906105053 | 60 | 314 | 1.0 | 5.0 | 0.00 | 0.00 | 0.00 | 74 | 1015.3 |
| 20260906104557 | 60 | 10 | 2.0 | 5.0 | 0.00 | 0.00 | 0.00 | 74 | 1015.5 |
| 20260906104050 | 60 | 332 | 1.0 | 3.0 | 0.00 | 0.00 | 0.00 | 74 | 1015.5 |
| 20260906103549 | 60 | 0 | 0.0 | 0.0 | 0.00 | 0.00 | 0.00 | 74 | 1015.6 |
| 20260906103059 | 60 | 0 | 0.0 | 0.0 | 0.00 | 0.00 | 0.00 | 73 | 1015.8 |
| 20260906102551 | 60 | 0 | 0.0 | 0.0 | 0.00 | 0.00 | 0.00 | 73 | 1016.1 |
| 20260906102048 | 60 | 0 | 0.0 | 2.0 | 0.00 | 0.00 | 0.00 | 72 | 1016.3 |
| 20260906101601 | 60 | 0 | 0.0 | 5.0 | 0.00 | 0.00 | 0.00 | 71 | 1016.3 |
| 20260906101051 | 60 | 0 | 0.0 | 6.0 | 0.00 | 0.00 | 0.00 | 71 | 1016.2 |
| 20260906100551 | 60 | 5 | 2.0 | 6.0 | 0.00 | 0.00 | 0.00 | 71 | 1016.0 |
| 20260906100057 | 60 | 355 | 2.0 | 6.0 | 0.00 | 0.00 | 0.00 | 71 | 1016.0 |
| 20260906095550 | 61 | 332 | 3.0 | 8.0 | 0.00 | 0.00 | 0.00 | 71 | 1015.9 |
| 20260906095053 | 61 | 342 | 4.0 | 8.0 | 0.00 | 0.00 | 0.00 | 70 | 1016.0 |
| 20260906094558 | 61 | 342 | 4.0 | 8.0 | 0.00 | 0.00 | 0.00 | 70 | 1016.1 |
| 20260906094053 | 60 | 321 | 3.0 | 6.0 | 0.00 | 0.00 | 0.00 | 70 | 1015.8 |
| 20260906093551 | 60 | 319 | 3.0 | 6.0 | 0.00 | 0.00 | 0.00 | 70 | 1015.6 |
| 20260906093058 | 60 | 338 | 3.0 | 5.0 | 0.00 | 0.00 | 0.00 | 70 | 1015.6 |
| 20260906092551 | 60 | 360 | 3.0 | 5.0 | 0.00 | 0.00 | 0.00 | 69 | 1015.7 |
| 20260906092052 | 60 | 341 | 2.0 | 9.0 | 0.00 | 0.00 | 0.00 | 69 | 1015.9 |
| 20260906091558 | 61 | 351 | 3.0 | 9.0 | 0.00 | 0.00 | 0.00 | 68 | 1015.8 |
| 20260906091053 | 61 | 327 | 3.0 | 9.0 | 0.00 | 0.00 | 0.00 | 68 | 1015.8 |
| 20260906090550 | 61 | 339 | 2.0 | 6.0 | 0.00 | 0.00 | 0.00 | 68 | 1015.8 |
| 20260906090100 | 61 | 325 | 3.0 | 6.0 | 0.00 | 0.00 | 0.00 | 67 | 1015.8 |
| 20260906085554 | 61 | 345 | 2.0 | 8.0 | 0.00 | 0.00 | 0.00 | 66 | 1015.9 |
| 20260906085054 | 62 | 346 | 2.0 | 8.0 | 0.00 | 0.00 | 0.00 | 65 | 1015.9 |
| 20260906084556 | 62 | 346 | 3.0 | 8.0 | 0.00 | 0.00 | 0.00 | 65 | 1015.7 |
| 20260906084055 | 62 | 352 | 4.0 | 8.0 | 0.00 | 0.00 | 0.00 | 65 | 1015.7 |
| 20260906083554 | 62 | 324 | 3.0 | 8.0 | 0.00 | 0.00 | 0.00 | 65 | 1015.9 |
| 20260906083103 | 62 | 317 | 4.0 | 8.0 | 0.00 | 0.00 | 0.00 | 64 | 1015.9 |
| 20260906082551 | 62 | 336 | 4.0 | 8.0 | 0.00 | 0.00 | 0.00 | 64 | 1015.9 |
| 20260906082051 | 62 | 320 | 3.0 | 8.0 | 0.00 | 0.00 | 0.00 | 64 | 1015.9 |
| 20260906081600 | 62 | 313 | 3.0 | 8.0 | 0.00 | 0.00 | 0.00 | 65 | 1015.9 |
| 20260906081055 | 62 | 318 | 4.0 | 8.0 | 0.00 | 0.00 | 0.00 | 65 | 1015.9 |
| 20260906080553 | 62 | 312 | 2.0 | 5.0 | 0.00 | 0.00 | 0.00 | 66 | 1016.1 |
| 20260906080058 | 62 | 306 | 2.0 | 5.0 | 0.00 | 0.00 | 0.00 | 66 | 1016.1 |
| 20260906075552 | 62 | 325 | 3.0 | 5.0 | 0.00 | 0.00 | 0.00 | 66 | 1015.9 |
| 20260906075051 | 63 | 327 | 2.0 | 5.0 | 0.00 | 0.00 | 0.00 | 65 | 1015.9 |
| 20260906074557 | 63 | 325 | 2.0 | 5.0 | 0.00 | 0.00 | 0.00 | 65 | 1015.9 |
| 20260906074052 | 63 | 344 | 2.0 | 5.0 | 0.00 | 0.00 | 0.00 | 63 | 1016.0 |
| 20260906073551 | 64 | 332 | 1.0 | 6.0 | 0.00 | 0.00 | 0.00 | 63 | 1016.0 |
| 20260906073059 | 64 | 349 | 2.0 | 6.0 | 0.00 | 0.00 | 0.00 | 62 | 1016.0 |
| 20260906072553 | 65 | 355 | 2.0 | 8.0 | 0.00 | 0.00 | 0.00 | 61 | 1016.0 |
| 20260906072050 | 66 | 327 | 3.0 | 8.0 | 0.00 | 0.00 | 0.00 | 61 | 1016.1 |
| 20260906071601 | 66 | 352 | 3.0 | 8.0 | 0.00 | 0.00 | 0.00 | 60 | 1016.0 |
| 20260906071056 | 66 | 13 | 2.0 | 8.0 | 0.00 | 0.00 | 0.00 | 60 | 1015.9 |
| 20260906070552 | 67 | 29 | 4.0 | 8.0 | 0.00 | 0.00 | 0.00 | 60 | 1016.0 |
| 20260906070058 | 66 | 10 | 3.0 | 8.0 | 0.00 | 0.00 | 0.00 | 60 | 1016.1 |
| 20260906065554 | 66 | 22 | 3.0 | 8.0 | 0.00 | 0.00 | 0.00 | 59 | 1016.0 |
| 20260906065051 | 66 | 28 | 3.0 | 8.0 | 0.00 | 0.00 | 0.00 | 61 | 1016.1 |
| 20260906064557 | 65 | 20 | 3.0 | 8.0 | 0.00 | 0.00 | 0.00 | 61 | 1015.9 |
| 20260906064054 | 65 | 13 | 4.0 | 8.0 | 0.00 | 0.00 | 0.00 | 61 | 1016.1 |
| 20260906063550 | 64 | 14 | 3.0 | 5.0 | 0.00 | 0.00 | 0.00 | 61 | 1016.1 |
| 20260906063057 | 64 | 5 | 3.0 | 5.0 | 0.00 | 0.00 | 0.00 | 61 | 1016.0 |
| 20260906062550 | 64 | 360 | 2.0 | 5.0 | 0.00 | 0.00 | 0.00 | 60 | 1016.2 |
| 20260906062051 | 64 | 350 | 2.0 | 5.0 | 0.00 | 0.00 | 0.00 | 60 | 1016.1 |
| 20260906061606 | 64 | 348 | 2.0 | 5.0 | 0.00 | 0.00 | 0.00 | 61 | 1016.3 |
| 20260906061051 | 65 | 344 | 2.0 | 7.0 | 0.00 | 0.00 | 0.00 | 62 | 1016.2 |
| 20260906060550 | 65 | 11 | 3.0 | 7.0 | 0.00 | 0.00 | 0.00 | 58 | 1016.1 |
| 20260906060121 | 65 | 16 | 3.0 | 6.0 | 0.00 | 0.00 | 0.00 | 56 | 1016.0 |
| 20260906055552 | 65 | 10 | 3.0 | 5.0 | 0.00 | 0.00 | 0.00 | 55 | 1016.1 |
| 20260906055054 | 66 | 342 | 3.0 | 5.0 | 0.00 | 0.00 | 0.00 | 55 | 1016.1 |
| 20260906054601 | 66 | 350 | 3.0 | 5.0 | 0.00 | 0.00 | 0.00 | 54 | 1016.2 |
| 20260906054051 | 66 | 5 | 3.0 | 5.0 | 0.00 | 0.00 | 0.00 | 53 | 1016.2 |
| 20260906053552 | 66 | 360 | 3.0 | 5.0 | 0.00 | 0.00 | 0.00 | 53 | 1016.2 |
| 20260906053058 | 66 | 347 | 3.0 | 5.0 | 0.00 | 0.00 | 0.00 | 52 | 1016.3 |
| 20260906052554 | 66 | 355 | 3.0 | 5.0 | 0.00 | 0.00 | 0.00 | 53 | 1016.4 |
| 20260906052052 | 66 | 13 | 2.0 | 5.0 | 0.00 | 0.00 | 0.00 | 52 | 1016.5 |
| 20260906051604 | 66 | 360 | 2.0 | 5.0 | 0.00 | 0.00 | 0.00 | 52 | 1016.4 |
| 20260906051052 | 67 | 360 | 2.0 | 4.0 | 0.00 | 0.00 | 0.00 | 51 | 1016.4 |
| 20260906050553 | 67 | 5 | 2.0 | 5.0 | 0.00 | 0.00 | 0.00 | 51 | 1016.4 |
| 20260906050101 | 67 | 14 | 2.0 | 5.0 | 0.00 | 0.00 | 0.00 | 50 | 1016.4 |
| 20260906045556 | 67 | 352 | 2.0 | 5.0 | 0.00 | 0.00 | 0.00 | 49 | 1016.4 |
| 20260906045054 | 67 | 360 | 3.0 | 5.0 | 0.00 | 0.00 | 0.00 | 48 | 1016.2 |
| 20260906044559 | 67 | 342 | 3.0 | 5.0 | 0.00 | 0.00 | 0.00 | 48 | 1016.2 |
| 20260906044052 | 68 | 344 | 2.0 | 5.0 | 0.00 | 0.00 | 0.00 | 49 | 1016.1 |
| 20260906043555 | 68 | 348 | 3.0 | 5.0 | 0.00 | 0.00 | 0.00 | 48 | 1016.1 |
| 20260906043102 | 68 | 20 | 3.0 | 5.0 | 0.00 | 0.00 | 0.00 | 47 | 1016.1 |
| 20260906042553 | 69 | 5 | 3.0 | 7.0 | 0.00 | 0.00 | 0.00 | 47 | 1016.1 |
| 20260906042051 | 69 | 360 | 3.0 | 7.0 | 0.00 | 0.00 | 0.00 | 47 | 1016.2 |
| 20260906041602 | 68 | 360 | 3.0 | 6.0 | 0.00 | 0.00 | 0.00 | 48 | 1016.2 |
| 20260906041050 | 68 | 17 | 3.0 | 5.0 | 0.00 | 0.00 | 0.00 | 49 | 1016.2 |
| 20260906040551 | 68 | 355 | 3.0 | 4.0 | 0.00 | 0.00 | 0.00 | 49 | 1016.2 |
| 20260906040101 | 67 | 355 | 2.0 | 5.0 | 0.00 | 0.00 | 0.00 | 49 | 1016.2 |
| 20260906035551 | 68 | 338 | 2.0 | 5.0 | 0.00 | 0.00 | 0.00 | 49 | 1016.2 |
| 20260906035051 | 68 | 5 | 2.0 | 5.0 | 0.00 | 0.00 | 0.00 | 48 | 1016.3 |
| 20260906034605 | 68 | 5 | 2.0 | 5.0 | 0.00 | 0.00 | 0.00 | 47 | 1016.3 |
| 20260906034050 | 68 | 352 | 3.0 | 5.0 | 0.00 | 0.00 | 0.00 | 47 | 1016.2 |
| 20260906033550 | 69 | 5 | 2.0 | 5.0 | 0.00 | 0.00 | 0.00 | 47 | 1016.0 |
| 20260906033056 | 69 | 355 | 2.0 | 5.0 | 0.00 | 0.00 | 0.00 | 46 | 1016.2 |
| 20260906032551 | 70 | 352 | 2.0 | 6.0 | 0.00 | 0.00 | 0.00 | 44 | 1016.1 |
| 20260906032051 | 71 | 348 | 3.0 | 12.0 | 0.00 | 0.00 | 0.00 | 43 | 1016.1 |
| 20260906031555 | 72 | 360 | 2.0 | 12.0 | 0.00 | 0.00 | 0.00 | 43 | 1016.2 |
| 20260906031054 | 72 | 32 | 5.0 | 12.0 | 0.00 | 0.00 | 0.00 | 42 | 1016.2 |
| 20260906030554 | 73 | 30 | 3.0 | 10.0 | 0.00 | 0.00 | 0.00 | 42 | 1016.2 |
| 20260906030109 | 73 | 28 | 4.0 | 10.0 | 0.00 | 0.00 | 0.00 | 41 | 1016.1 |
| 20260906025550 | 73 | 52 | 5.0 | 10.0 | 0.00 | 0.00 | 0.00 | 41 | 1015.9 |
| 20260906025053 | 73 | 5 | 4.0 | 9.0 | 0.00 | 0.00 | 0.00 | 41 | 1015.7 |
| 20260906024603 | 73 | 22 | 4.0 | 9.0 | 0.00 | 0.00 | 0.00 | 41 | 1015.6 |
| 20260906024051 | 73 | 5 | 4.0 | 8.0 | 0.00 | 0.00 | 0.00 | 42 | 1015.6 |
| 20260906023554 | 73 | 36 | 4.0 | 8.0 | 0.00 | 0.00 | 0.00 | 41 | 1015.5 |
| 20260906023103 | 74 | 30 | 3.0 | 8.0 | 0.00 | 0.00 | 0.00 | 41 | 1015.6 |
| 20260906022552 | 73 | 11 | 4.0 | 8.0 | 0.00 | 0.00 | 0.00 | 41 | 1015.5 |
| 20260906022050 | 74 | 32 | 3.0 | 8.0 | 0.00 | 0.00 | 0.00 | 42 | 1015.5 |
| 20260906021558 | 74 | 355 | 3.0 | 7.0 | 0.00 | 0.00 | 0.00 | 41 | 1015.5 |
| 20260906021053 | 74 | 44 | 2.0 | 7.0 | 0.00 | 0.00 | 0.00 | 39 | 1015.5 |
| 20260906020554 | 74 | 27 | 3.0 | 8.0 | 0.00 | 0.00 | 0.00 | 40 | 1015.6 |
| 20260906020056 | 75 | 37 | 3.0 | 9.0 | 0.00 | 0.00 | 0.00 | 39 | 1015.6 |
| 20260906015553 | 75 | 42 | 2.0 | 10.0 | 0.00 | 0.00 | 0.00 | 39 | 1015.6 |
| 20260906015053 | 75 | 48 | 2.0 | 10.0 | 0.00 | 0.00 | 0.00 | 38 | 1015.6 |
| 20260906014607 | 75 | 44 | 3.0 | 10.0 | 0.00 | 0.00 | 0.00 | 39 | 1015.7 |
| 20260906014051 | 76 | 42 | 2.0 | 13.0 | 0.00 | 0.00 | 0.00 | 38 | 1015.7 |
| 20260906013550 | 76 | 65 | 4.0 | 13.0 | 0.00 | 0.00 | 0.00 | 36 | 1015.6 |
| 20260906013059 | 76 | 49 | 6.0 | 13.0 | 0.00 | 0.00 | 0.00 | 37 | 1015.5 |
| 20260906012554 | 76 | 38 | 5.0 | 10.0 | 0.00 | 0.00 | 0.00 | 37 | 1015.4 |
| 20260906012053 | 77 | 43 | 6.0 | 12.0 | 0.00 | 0.00 | 0.00 | 36 | 1015.4 |
| 20260906011604 | 77 | 57 | 6.0 | 12.0 | 0.00 | 0.00 | 0.00 | 35 | 1015.4 |
| 20260906011053 | 77 | 62 | 6.0 | 12.0 | 0.00 | 0.00 | 0.00 | 36 | 1015.5 |
| 20260906010550 | 78 | 66 | 6.0 | 12.0 | 0.00 | 0.00 | 0.00 | 34 | 1015.5 |
| 20260906010058 | 78 | 42 | 4.0 | 12.0 | 0.00 | 0.00 | 0.00 | 34 | 1015.5 |
| 20260906005552 | 78 | 55 | 6.0 | 13.0 | 0.00 | 0.00 | 0.00 | 33 | 1015.5 |
| 20260906005055 | 78 | 46 | 8.0 | 14.0 | 0.00 | 0.00 | 0.00 | 34 | 1015.3 |
| 20260906004601 | 78 | 42 | 6.0 | 14.0 | 0.00 | 0.00 | 0.00 | 33 | 1015.4 |
| 20260906004054 | 78 | 60 | 6.0 | 11.0 | 0.00 | 0.00 | 0.00 | 33 | 1015.3 |
| 20260906003554 | 79 | 56 | 4.0 | 9.0 | 0.00 | 0.00 | 0.00 | 33 | 1015.3 |
| 20260906003058 | 79 | 61 | 4.0 | 11.0 | 0.00 | 0.00 | 0.00 | 32 | 1015.3 |
| 20260906002552 | 79 | 49 | 6.0 | 11.0 | 0.00 | 0.00 | 0.00 | 32 | 1015.3 |
| 20260906002052 | 79 | 53 | 4.0 | 11.0 | 0.00 | 0.00 | 0.00 | 32 | 1015.3 |
| 20260906001555 | 79 | 61 | 5.0 | 11.0 | 0.00 | 0.00 | 0.00 | 34 | 1015.4 |
| 20260906001053 | 80 | 69 | 6.0 | 11.0 | 0.00 | 0.00 | 0.00 | 34 | 1015.4 |
| 20260906000550 | 80 | 41 | 4.0 | 9.0 | 0.00 | 0.00 | 0.00 | 32 | 1015.4 |
| 20260906000111 | 80 | 63 | 4.0 | 10.0 | 0.00 | 0.00 | 0.00 | 33 | 1015.4 |
| 20260905235550 | 80 | 59 | 5.0 | 13.0 | 0.00 | 0.00 | 0.00 | 31 | 1015.3 |
| 20260905235052 | 80 | 72 | 4.0 | 13.0 | 0.00 | 0.00 | 0.00 | 32 | 1015.3 |
| 20260905234606 | 80 | 76 | 6.0 | 13.0 | 0.00 | 0.00 | 0.00 | 33 | 1015.4 |
| 20260905234050 | 80 | 59 | 5.0 | 11.0 | 0.00 | 0.00 | 0.00 | 32 | 1015.4 |
| 20260905233558 | 80 | 86 | 5.0 | 12.0 | 0.00 | 0.00 | 0.00 | 33 | 1015.3 |
| 20260905233106 | 80 | 51 | 6.0 | 12.0 | 0.00 | 0.00 | 0.00 | 31 | 1015.2 |
| 20260905232551 | 80 | 54 | 4.0 | 10.0 | 0.00 | 0.00 | 0.00 | 34 | 1015.2 |
| 20260905232053 | 80 | 36 | 5.0 | 10.0 | 0.00 | 0.00 | 0.00 | 32 | 1015.3 |
| 20260905231601 | 80 | 73 | 4.0 | 10.0 | 0.00 | 0.00 | 0.00 | 34 | 1015.3 |
| 20260905231057 | 80 | 89 | 3.0 | 11.0 | 0.00 | 0.00 | 0.00 | 32 | 1015.3 |
| 20260905230554 | 80 | 46 | 5.0 | 11.0 | 0.00 | 0.00 | 0.00 | 33 | 1015.3 |
| 20260905230059 | 80 | 74 | 6.0 | 11.0 | 0.00 | 0.00 | 0.00 | 31 | 1015.2 |
| 20260905225553 | 80 | 110 | 5.0 | 12.0 | 0.00 | 0.00 | 0.00 | 34 | 1015.3 |
| 20260905225051 | 80 | 96 | 3.0 | 12.0 | 0.00 | 0.00 | 0.00 | 33 | 1015.3 |
| 20260905224604 | 80 | 79 | 5.0 | 12.0 | 0.00 | 0.00 | 0.00 | 32 | 1015.3 |
| 20260905224050 | 80 | 93 | 7.0 | 12.0 | 0.00 | 0.00 | 0.00 | 32 | 1015.3 |
| 20260905223550 | 80 | 62 | 4.0 | 9.0 | 0.00 | 0.00 | 0.00 | 36 | 1015.3 |
| 20260905223102 | 80 | 87 | 5.0 | 9.0 | 0.00 | 0.00 | 0.00 | 33 | 1015.3 |
| 20260905222550 | 80 | 40 | 2.0 | 13.0 | 0.00 | 0.00 | 0.00 | 38 | 1015.3 |